Flag for Micronesia Weather past 2 weeks in Kolonia, Pohnpei, Micronesia

Now
79 °F

Mostly cloudy.


Feels Like: 83 °F
Forecast: 77 / 85 °F
Wind: 9 mph from Southwest

Location: Pohnpei

Current Time: Aug 30, 2015 at 12:35:08 AM

Latest Report: Aug 29, 2015 at 11:50 PM


Visibility: 15 mi

Pressure: 29.89 "Hg

Humidity: 91%

Dew point: 76 °F

Location of KoloniaLocation

Historic Weather in Kolonia — Graph

°F

Kolonia temperature yesterday

Maximum temperature yesterday: 83 °F (at 8:53 AM)
Minimum temperature yesterday: 77 °F (at 6:50 PM)
Average temperature yesterday: 79 °F

Past Weeks' High & Low Weather Summary

 TemperatureHumidityPressure
High92 °F (Aug 21, 2:55 PM)99% (Aug 28, 5:50 PM)29.97 "Hg (Aug 28, 5:50 PM)
Low74 °F (Aug 22, 1:53 AM)62% (Aug 21, 3:54 PM)29.75 "Hg (Aug 17, 4:50 PM)
Average81 °F86%29.84 "Hg
* Reported Aug 14 10:54 PM — Aug 29 10:55 PM, Kolonia, Weather by CustomWeather, © 2015

Note: Actual official high and low records may vary slightly from our data, if they occured in-between our weather recording intervals... More about our weather records

Advertising

Kolonia weather history for previous 24 hours

 ConditionsComfort  
Time TempWeatherWind HumidityBarometerVisibility
10:55 PM
Sat, Aug 29
78 °FMostly cloudy.12 mph94%29.90 "Hg15 mi
9:50 PM78 °FMostly cloudy.5 mph98%29.90 "Hg15 mi
8:50 PM78 °FMostly cloudy.3 mph98%29.90 "Hg15 mi
7:50 PM78 °FPassing clouds.7 mph97%29.88 "Hg15 mi
6:50 PM77 °FMostly cloudy.6 mph96%29.86 "Hg15 mi
5:50 PM80 °FSprinkles. Mostly cloudy.9 mph94%29.85 "Hg14 mi
4:50 PM81 °FMostly cloudy.12 mph88%29.85 "Hg15 mi
3:53 PM81 °FMostly cloudy.8 mph88%29.83 "Hg15 mi
2:52 PM79 °FSprinkles. Mostly cloudy.9 mph91%29.83 "Hg10 mi
1:52 PM82 °FMostly cloudy.10 mph88%29.84 "Hg15 mi
12:52 PM78 °FSprinkles. Mostly cloudy.5 mph94%29.88 "Hg12 mi
11:53 AM79 °FMostly cloudy.12 mph91%29.90 "Hg15 mi
10:53 AM81 °FSprinkles. Mostly cloudy.5 mph90%29.90 "Hg12 mi
9:55 AM80 °FSprinkles. Mostly cloudy.14 mph96%29.91 "Hg7 mi
8:53 AM83 °FMostly cloudy.8 mph87%29.90 "Hg15 mi
7:52 AM80 °FSprinkles. Mostly cloudy.6 mph92%29.88 "Hg12 mi
6:52 AM77 °FMostly cloudy.7 mph95%29.85 "Hg15 mi
5:52 AM77 °FMostly cloudy.5 mph95%29.85 "Hg15 mi
4:50 AM79 °FMostly cloudy.8 mph91%29.83 "Hg15 mi
2:50 AM78 °FMostly cloudy.3 mph95%29.83 "Hg15 mi
1:54 AM78 °FSprinkles. Mostly cloudy.7 mph95%29.83 "Hg12 mi
12:53 AM79 °FPassing clouds.3 mph91%29.85 "Hg15 mi
Weather by CustomWeather, © 2015

See weather overviewHow to use our weather pages